KF7SHY-14 Weather Reports


time (UTC)temp
F
wind
direction
speed
knots
gust
knots
rain 1hr
in
rain 24hr
in
rain mn
in
humidity
%
barometer
mb
20260503193345 0 280 0.9 3.5 0.00 0.00 0.00 1014.1
20260503192345 0 272 0.9 3.5 0.00 0.00 0.00 1014.1
20260503191410 0 282 0.9 3.5 0.00 0.00 0.00 1014.2
20260503190345 0 296 0.9 2.6 0.00 0.00 0.00 1014.3
20260503185344 0 282 0.9 2.6 0.00 0.00 0.00 1014.3
20260503184346 0 260 0.9 2.6 0.00 0.00 0.00 1014.3
20260503183344 0 260 0.9 3.5 0.00 0.00 0.00 1014.4
20260503181409 0 200 0.9 5.2 0.00 0.00 0.00 1014.4
20260503180345 0 250 0.9 2.6 0.00 0.00 0.00 1014.6
20260503175344 0 55 0.0 2.6 0.00 0.00 0.00 1014.6
20260503174344 0 186 0.9 3.5 0.00 0.00 0.00 1014.7
20260503172344 0 62 0.9 2.6 0.00 0.00 0.00 1014.8
20260503171409 0 141 0.9 4.3 0.00 0.00 0.00 1014.7
20260503170344 0 156 0.9 6.1 0.00 0.00 0.00 1014.8
20260503150342 0 122 0.9 4.3 0.00 0.00 0.00 1015.1
20260503131406 0 61 1.7 5.2 0.00 0.00 0.00 1015.0
20260503130341 0 45 2.6 8.7 0.00 0.00 0.00 1015.0
20260503110241 0 82 0.9 5.2 0.00 0.00 0.00 1015.3
20260503100241 0 36 1.7 5.2 0.00 0.00 0.00 1015.6
20260503090241 0 49 1.7 4.3 0.00 0.00 0.00 1015.6
20260503081305 0 64 0.0 1.7 0.00 0.00 0.00 1015.7
20260503072240 0 13 0.9 4.3 0.00 0.00 0.00 1015.7
20260503071305 0 90 0.9 2.6 0.00 0.00 0.00 1015.7
20260503070239 0 49 1.7 5.2 0.00 0.00 0.00 1015.8
20260503060239 0 112 0.9 0.9 0.00 0.00 0.00 1015.8
20260503054239 0 109 0.0 1.7 0.00 0.00 0.00 1015.7
20260503053239 0 356 1.7 4.3 0.00 0.00 0.00 1015.6
20260503052239 0 3 3.5 6.1 0.00 0.00 0.00 1015.6
20260503051312 0 359 1.7 3.5 0.00 0.00 0.00 1015.4
20260503045241 0 353 5.2 8.7 0.00 0.00 0.00 1015.3
20260503044239 0 356 5.2 7.8 0.00 0.00 0.00 1015.1
20260503043241 0 352 3.5 7.0 0.00 0.00 0.00 1015.1
20260503042331 0 289 4.3 7.0 0.00 0.00 0.00 1015.1
20260503041358 0 282 3.5 7.8 0.00 0.00 0.00 1014.9
20260503035339 0 301 4.3 7.8 0.00 0.00 0.00 1014.6
20260503033341 0 308 4.3 9.6 0.00 0.00 0.00 1014.2
20260503032341 0 284 3.5 7.8 0.00 0.00 0.00 1014.1
20260503031407 0 273 4.3 7.8 0.00 0.00 0.00 1014.1
20260503030343 0 257 3.5 7.0 0.00 0.00 0.00 1013.9
20260503024341 0 281 2.6 6.1 0.00 0.00 0.00 1013.8
20260503023344 0 290 1.7 7.8 0.00 0.00 0.00 1013.8
20260503022406 0 291 3.5 7.8 0.00 0.00 0.00 1013.7
20260503020341 0 279 4.3 9.6 0.00 0.00 0.00 1013.7
20260503015341 0 298 6.1 10.4 0.00 0.00 0.00 1013.7
20260503014343 0 301 5.2 8.7 0.00 0.00 0.00 1013.8
20260503013345 0 294 6.1 9.6 0.00 0.00 0.00 1013.7
20260503012343 0 302 5.2 8.7 0.00 0.00 0.00 1013.7
20260503011410 0 300 5.2 8.7 0.00 0.00 0.00 1013.7
20260503010342 0 303 5.2 8.7 0.00 0.00 0.00 1013.7
20260503005345 0 291 5.2 9.6 0.00 0.00 0.00 1013.7
20260503004342 0 295 5.2 7.8 0.00 0.00 0.00 1013.7
20260503003345 0 290 5.2 7.8 0.00 0.00 0.00 1013.7
20260503002342 0 292 5.2 9.6 0.00 0.00 0.00 1013.7
20260503000342 0 279 6.1 11.3 0.00 0.00 0.00 1013.8
20260502233343 0 269 7.0 11.3 0.00 0.00 0.00 1013.7
20260502231408 0 262 6.1 13.0 0.00 0.00 0.00 1013.9
20260502225343 0 258 6.1 9.6 0.00 0.00 0.00 1014.0
20260502224343 0 259 6.1 9.6 0.00 0.00 0.00 1014.1
20260502223342 0 245 7.0 10.4 0.00 0.00 0.00 1014.2
20260502222342 0 250 6.1 10.4 0.00 0.00 0.00 1014.4
20260502221406 0 239 6.1 7.8 0.00 0.00 0.00 1014.4
20260502220342 0 232 5.2 7.8 0.00 0.00 0.00 1014.5
20260502215342 0 238 5.2 7.8 0.00 0.00 0.00 1014.6
20260502213340 0 261 2.6 5.2 0.00 0.00 0.00 1014.7
20260502212341 0 251 3.5 6.1 0.00 0.00 0.00 1014.8
20260502211405 0 302 3.5 5.2 0.00 0.00 0.00 1014.9
20260502210520 0 288 3.5 6.1 0.00 0.00 0.00 1015.0
20260502205340 0 291 3.5 7.0 0.00 0.00 0.00 1015.1
20260502204342 0 294 2.6 6.1 0.00 0.00 0.00 1015.2
20260502203341 0 305 2.6 5.2 0.00 0.00 0.00 1015.3
20260502202342 0 338 2.6 6.1 0.00 0.00 0.00 1015.4
20260502201408 0 339 2.6 5.2 0.00 0.00 0.00 1015.4
20260502200341 0 337 1.7 4.3 0.00 0.00 0.00 1015.4
20260502195341 0 285 1.7 4.3 0.00 0.00 0.00 1015.5
20260502194342 0 312 2.6 5.2 0.00 0.00 0.00 1015.6